Location: Carole Heights
(41.1624°N, 111.9588°W)
Time: 09:25:24
(UTC+00:00)

X-37B - Visible Passes

Search period start: 04 March 2021 00:00
Search period end: 14 March 2021 00:00
Orbit: 383 x 391 km, 45.0° (Epoch: 27 February)

Date Brightness Start Highest point End Pass type
(mag) Time Alt. Az. Time Alt. Az. Time Alt. Az.
04 Mar 2.8 12:25:08 16° S 12:25:08 16° S 12:26:10 10° SSE visible
10 Mar 3.1 03:17:15 10° SSW 03:17:55 14° SSW 03:17:55 14° SSW visible
11 Mar 2.4 02:19:46 10° S 02:21:54 17° SE 02:22:51 15° ESE visible
11 Mar 3.8 03:55:00 10° WSW 03:55:10 11° WSW 03:55:10 11° WSW visible
12 Mar 0.7 02:56:44 10° SW 02:59:52 52° SSE 02:59:57 52° SE visible
13 Mar 1.7 01:58:45 10° SSW 02:01:36 29° SSE 02:04:27 10° E visible
13 Mar 2.3 03:34:56 10° W 03:36:56 33° W 03:36:56 33° W visible
